Regional Weather Roundup
Issued by NWS Charleston, SC

Current Version | Previous Version | Text Only | Print | Product List | Glossary Off
Versions: 1 2 3 4 5 6 7 8 9 10 11 12 13 14 15 16 17 18 19 20 21 22 23 24 25 26 27 28 29 30 31 32 33 34 35 36 37 38 39 40 41 42 43 44 45 46 47 48 49 50
000 ASUS42 KCHS 010512 RWRCHS REGIONAL WEATHER ROUNDUP NATIONAL WEATHER SERVICE CHARLESTON SC 100 AM EDT WED JUL 01 2015 NOTE: "FAIR" INDICATES FEW OR NO CLOUDS BELOW 12,000 FEET WITH NO SIGNIFICANT WEATHER AND/OR OBSTRUCTIONS TO VISIBILITY. NOT ALL STATIONS ARE QUALITY CONTROLLED BY THE NATIONAL WEATHER SERVICE. USE DATA WITH CAUTION...ESPECIALLY DEWPOINT OBSERVATIONS. SCZ027-030-031-034>040-042>050-010600- ...SOUTHEAST SOUTH CAROLINA... CITY SKY/WX TMP DP RH WIND PRES REMARKS N CHARLESTON PTCLDY 72 69 90 SW5 30.00S WATERFRONT PAR N/A 75 71 87 W5 29.99R MOUNT PLEASANT LGT RAIN 73 72 94 SW3 30.01R JOHNS ISLAND FAIR 73 70 88 CALM 30.01S PINOPOLIS NOT AVBL MONCKS CORNER FAIR 72 68 88 SW3 30.00S SUMMERVILLE FAIR 70 70 100 CALM 30.01F BEAUFORT MCAS CLEAR 73 69 87 SW5 30.01F BEAUFORT ARPT FAIR 75 72 88 SW7 30.01S HILTON HEAD IS CLEAR 75 72 88 S6 30.03R WALTERBORO CLEAR 70 68 94 SW3 30.01F ALLENDALE NOT AVBL ...SOUTHERN MIDLANDS AND PEE DEE... CITY SKY/WX TMP DP RH WIND PRES REMARKS GEORGETOWN NOT AVBL KINGSTREE NOT AVBL ORANGEBURG CLOUDY 70 68 93 S6 30.00R FOG BARNWELL FAIR 72 70 94 SW3 30.00S AIKEN NOT AVBL MANNING RAIN 70 70 100 SW7 30.00R COLUMBIA PTCLDY 72 68 87 SW6 29.97S SUMTER CLOUDY 70 68 94 S6 29.96F FLORENCE PTCLDY 71 69 93 SW8 29.97F MYRTLE BEACH MOCLDY 75 66 73 SW7 30.01R N MYRTLE BEACH PTCLDY 74 68 81 W6 29.98S $$ GAZ063-065-086>088-099>101-113>116-118-119-134>141-150-010600- ...SOUTHEAST GEORGIA... CITY SKY/WX TMP DP RH WIND PRES REMARKS SAVANNAH ARPT CLEAR 73 69 87 SW6 30.02S HUNTER AAF CLEAR 74 71 91 SW3 30.01R FORT STEWART CLEAR 73 69 88 SW6 30.01S STATESBORO CLEAR 72 32 23 SW5 30.01F SYLVANIA CLEAR 72 72 100 CALM 30.02F CLAXTON FAIR 72 70 94 CALM 30.02F ...CSRA...CENTRAL AND FAR SOUTHEAST GEORGIA... CITY SKY/WX TMP DP RH WIND PRES REMARKS THOMSON CLEAR 73 72 99 SW3 30.04S AUGUSTA-BUSH NOT AVBL AUGUSTA-DANIEL NOT AVBL SWAINSBORO FAIR N/A N/A N/A W5 30.03S VIDALIA RAIN 72 70 94 W7 30.03F EASTMAN FAIR 73 73 100 W6 30.07S HAZLEHURST FAIR 73 73 100 SW5 30.03F ALMA MOCLDY 72 70 93 SW7 30.05R WAYCROSS MOCLDY 74 73 97 SW6 30.05S JESUP FAIR 73 72 94 W5 30.05R BAXLEY FAIR 73 72 94 SW5 30.04S BRUNSWICK PTCLDY 73 70 88 SW9 30.06R SAINT SIMONS PTCLDY 74 70 87 SW8 30.04S $$ SCZ027-028-034-036>038-045-046-048>050-GAZ119-141-010600- ...LAKE AND SUPPLEMENTAL COASTAL OBSERVATIONS... STATION/POSITION TIME TEMP WIND PRES WAVE SWELL AIR SEA DIR/SP/G HT/PER HT/PER/DIR (UTC) (F) (DEG/KT/KT) (MB) (FT/S) (FT/S/D) UPR LAKE MARION NOT AVBL WINYAH BAY NOT AVBL LAKE MURRAY 0400 75 230/ 8/ 13 1014.6S ACE BASIN NERRS NOT AVBL FORT PULASKI 0400 76 84 230/ 4/ 6 1016.9S SAPELO ISLAND 0400 76 210/ 8 1017.0S $$ ANZ835-935-AMZ111-154-330-350-352-354-370-450-454-472-010600- ...C-MAN AND BUOY OBSERVATIONS... STATION/POSITION TIME TEMP WIND PRES WAVE SWELL AIR SEA DIR/SP/G HT/PER HT/PER/DIR (UTC) (F) (DEG/KT/KT) (MB) (FT/S) (FT/S/D) BUOY 41004 0450 81 82 240/ 16/ 17 1015.4S 4/ 5 2/ 9 BUOY 41008 0450 79 80 230/ 16/ 17 1017.3R 2/ 9 2/120/ 9 FOLLY BEACH CMAN 0400 75 250/ 4/ 6 1016.1F CAPERS NEARSHORE 0408 79 250/ 12/ 14 1016.1F FRIPP NEARSHORE 0400 80 240/ 16/ 19 1016.1S STATION/POSITION TIME TEMP WIND PRES WAVE SWELL AIR SEA DIR/SP/G HT/PER HT/PER/DIR (UTC) (F) (DEG/KT/KT) (MB) (FT/S) (FT/S/D) 5E ST. MARYS GA 0421 78 N/A 2/ 8 FRYING PAN BUOY 0450 82 80 210/ 17/ 19 1015.4F 5/ 5 BUOY 41025 0450 82 82 230/ 23/ 29 1014.3F 6/ 6 CAPE LOOKOUT NC 0400 80 220/ 13/ 18 1014.9R BUOY 41002 0450 81 80 220/ 16/ 17 1018.6F 6/ 8 3/160/ 8 BUOY 41010 0420 81 84 220/ 12/ 14 1020.6F ST AUGUSTINE FL 0500 74 74 230/ 4/ 5 1019.6F $$

USA.gov is the U.S. government's official web portal to all federal, state and local government web resources and services.